^^
 
Daily Summary for January 28, 2023 Units:  English    Metric   Both
Daily Weekly Monthly Yearly Custom
  Current: High: Low: Average:
Temperature: 39.0 °F 39.0 °F 35.1 °F 36.6 °F
Dew Point: 30.0 °F 34.0 °F 28.2 °F 30.5 °F
Humidity: 70% 86% 70% 78%
Wind Speed: 0mph 2mph 0mph 0.2mph
Wind Gust: 0mph 2mph - -
WindCalm - - SSW
Pressure: 30.1 in 30.1 in 30.1 in -
Precipitation: 0.000 in      
Historical Graphs
 
 
Tabular Data for January 28, 2023
Time Temperature Dew Point Pressure Wind Wind Speed Wind Gust Humidity Rainfall Rate (Hourly) solar
00:04 37.8 °F 34.0 °F 30.1 in Calm     86% 0.000 in 0.00 W/m2
00:09 37.8 °F 34.0 °F 30.1 in Calm     86% 0.000 in 0.00 W/m2
00:14 37.7 °F 33.9 °F 30.1 in Calm     86% 0.000 in 0.00 W/m2
00:19 37.7 °F 33.9 °F 30.1 in Calm     86% 0.000 in 0.00 W/m2
00:24 37.7 °F 33.6 °F 30.1 in NE 2 mph   85% 0.000 in 0.00 W/m2
00:29 37.6 °F 33.5 °F 30.1 in Calm   2 mph 85% 0.000 in 0.00 W/m2
00:34 37.6 °F 33.5 °F 30.1 in Calm     85% 0.000 in 0.00 W/m2
00:39 37.6 °F 33.5 °F 30.1 in Calm     85% 0.000 in 0.00 W/m2
00:44 37.6 °F 33.5 °F 30.1 in Calm     85% 0.000 in 0.00 W/m2
00:49 37.5 °F 33.1 °F 30.1 in Calm     84% 0.000 in 0.00 W/m2
00:54 37.5 °F 33.1 °F 30.1 in Calm     84% 0.000 in 0.00 W/m2
00:59 37.5 °F 33.1 °F 30.1 in Calm     84% 0.000 in 0.00 W/m2
01:04 37.5 °F 33.1 °F 30.1 in Calm     84% 0.000 in 0.00 W/m2
01:09 37.4 °F 33.0 °F 30.1 in Calm     84% 0.000 in 0.00 W/m2
01:14 37.3 °F 32.6 °F 30.1 in Calm     83% 0.000 in 0.00 W/m2
01:19 37.3 °F 32.6 °F 30.1 in Calm     83% 0.000 in 0.00 W/m2
01:24 37.2 °F 32.5 °F 30.1 in Calm     83% 0.000 in 0.00 W/m2
01:29 37.1 °F 32.5 °F 30.1 in Calm     83% 0.000 in 0.00 W/m2
01:34 37.1 °F 32.4 °F 30.1 in Calm     83% 0.000 in 0.00 W/m2
01:39 37.1 °F 32.1 °F 30.1 in Calm     82% 0.000 in 0.00 W/m2
01:44 37.1 °F 32.1 °F 30.1 in Calm     82% 0.000 in 0.00 W/m2
01:49 37.0 °F 32.0 °F 30.1 in WNW 2 mph 2 mph 82% 0.000 in 0.00 W/m2
01:54 37.0 °F 31.7 °F 30.1 in Calm     81% 0.000 in 0.00 W/m2
01:59 37.0 °F 31.7 °F 30.1 in WSW 2 mph   81% 0.000 in 0.00 W/m2
02:04 37.0 °F 31.4 °F 30.1 in Calm   2 mph 80% 0.000 in 0.00 W/m2
02:09 37.1 °F 31.5 °F 30.1 in SSW 2 mph   80% 0.000 in 0.00 W/m2
02:14 37.1 °F 31.5 °F 30.1 in Calm   2 mph 80% 0.000 in 0.00 W/m2
02:19 37.1 °F 31.5 °F 30.1 in Calm     80% 0.000 in 0.00 W/m2
02:24 37.2 °F 31.6 °F 30.1 in Calm     80% 0.000 in 0.00 W/m2
02:29 37.2 °F 31.6 °F 30.1 in Calm     80% 0.000 in 0.00 W/m2
02:34 37.2 °F 31.6 °F 30.1 in SSW 2 mph   80% 0.000 in 0.00 W/m2
02:39 37.3 °F 31.7 °F 30.1 in Calm   2 mph 80% 0.000 in 0.00 W/m2
02:44 37.3 °F 31.7 °F 30.1 in Calm     80% 0.000 in 0.00 W/m2
02:49 37.3 °F 31.7 °F 30.1 in Calm     80% 0.000 in 0.00 W/m2
02:54 37.3 °F 31.7 °F 30.1 in Calm     80% 0.000 in 0.00 W/m2
02:59 37.2 °F 31.6 °F 30.1 in Calm     80% 0.000 in 0.00 W/m2
03:04 37.2 °F 31.3 °F 30.1 in Calm     79% 0.000 in 0.00 W/m2
03:09 37.1 °F 31.2 °F 30.1 in Calm     79% 0.000 in 0.00 W/m2
03:14 37.1 °F 31.2 °F 30.1 in Calm     79% 0.000 in 0.00 W/m2
03:19 37.1 °F 31.2 °F 30.1 in Calm     79% 0.000 in 0.00 W/m2
03:24 37.0 °F 31.1 °F 30.1 in Calm     79% 0.000 in 0.00 W/m2
03:29 37.0 °F 31.1 °F 30.1 in Calm     79% 0.000 in 0.00 W/m2
03:34 36.9 °F 31.0 °F 30.1 in Calm     79% 0.000 in 0.00 W/m2
03:39 36.9 °F 31.0 °F 30.1 in Calm     79% 0.000 in 0.00 W/m2
03:44 36.8 °F 30.9 °F 30.1 in Calm     79% 0.000 in 0.00 W/m2
03:49 36.7 °F 30.8 °F 30.1 in Calm     79% 0.000 in 0.00 W/m2
03:54 36.6 °F 30.7 °F 30.1 in Calm     79% 0.000 in 0.00 W/m2
03:59 36.5 °F 30.6 °F 30.1 in Calm     79% 0.000 in 0.00 W/m2
04:04 36.4 °F 30.5 °F 30.1 in Calm     79% 0.000 in 0.00 W/m2
04:09 36.4 °F 30.5 °F 30.1 in Calm     79% 0.000 in 0.00 W/m2
04:14 36.4 °F 30.2 °F 30.1 in Calm     78% 0.000 in 0.00 W/m2
04:19 36.3 °F 30.4 °F 30.1 in Calm     79% 0.000 in 0.00 W/m2
04:24 36.2 °F 30.3 °F 30.1 in Calm     79% 0.000 in 0.00 W/m2
04:29 36.1 °F 30.2 °F 30.1 in Calm     79% 0.000 in 0.00 W/m2
04:34 36.0 °F 30.1 °F 30.1 in Calm     79% 0.000 in 0.00 W/m2
04:39 35.9 °F 30.0 °F 30.1 in Calm     79% 0.000 in 0.00 W/m2
04:44 35.8 °F 29.8 °F 30.1 in Calm     79% 0.000 in 0.00 W/m2
04:49 35.7 °F 29.8 °F 30.1 in Calm     79% 0.000 in 0.00 W/m2
04:54 35.6 °F 29.7 °F 30.1 in Calm     79% 0.000 in 0.00 W/m2
04:59 35.5 °F 29.3 °F 30.1 in Calm     78% 0.000 in 0.00 W/m2
05:04 35.5 °F 29.3 °F 30.1 in Calm     78% 0.000 in 0.00 W/m2
05:09 35.4 °F 29.2 °F 30.1 in Calm     78% 0.000 in 0.00 W/m2
05:14 35.4 °F 29.2 °F 30.1 in Calm     78% 0.000 in 0.00 W/m2
05:19 35.3 °F 29.4 °F 30.1 in Calm     79% 0.000 in 0.00 W/m2
05:24 35.3 °F 29.4 °F 30.1 in Calm     79% 0.000 in 0.00 W/m2
05:29 35.3 °F 29.4 °F 30.1 in Calm     79% 0.000 in 0.00 W/m2
05:34 35.2 °F 29.3 °F 30.1 in Calm     79% 0.000 in 0.00 W/m2
05:39 35.1 °F 29.2 °F 30.1 in Calm     79% 0.000 in 0.00 W/m2
05:44 35.2 °F 29.2 °F 30.1 in Calm     79% 0.000 in 0.00 W/m2
05:49 35.3 °F 29.1 °F 30.1 in Calm     78% 0.000 in 0.00 W/m2
05:54 35.5 °F 29.0 °F 30.1 in Calm     77% 0.000 in 0.00 W/m2
05:59 35.7 °F 29.1 °F 30.1 in Calm     77% 0.000 in 0.00 W/m2
06:04 35.9 °F 29.1 °F 30.1 in Calm     76% 0.000 in 0.00 W/m2
06:09 36.0 °F 29.0 °F 30.1 in Calm     76% 0.000 in 0.00 W/m2
06:14 36.1 °F 28.9 °F 30.1 in Calm     75% 0.000 in 0.00 W/m2
06:19 36.2 °F 29.0 °F 30.1 in SW 2 mph   75% 0.000 in 0.00 W/m2
06:24 36.2 °F 29.0 °F 30.1 in Calm   2 mph 75% 0.000 in 0.00 W/m2
06:29 36.2 °F 29.0 °F 30.1 in Calm     75% 0.000 in 0.00 W/m2
06:34 36.2 °F 29.0 °F 30.1 in Calm     75% 0.000 in 0.00 W/m2
06:39 36.1 °F 28.6 °F 30.1 in Calm     74% 0.000 in 0.00 W/m2
06:44 36.0 °F 28.5 °F 30.1 in SSW 2 mph   74% 0.000 in 0.00 W/m2
06:49 36.0 °F 28.5 °F 30.1 in SSW 2 mph 2 mph 74% 0.000 in 0.00 W/m2
06:54 36.1 °F 28.6 °F 30.1 in Calm     74% 0.000 in 0.00 W/m2
06:59 36.2 °F 28.3 °F 30.1 in Calm     73% 0.000 in 0.00 W/m2
07:04 36.2 °F 28.4 °F 30.1 in Calm     73% 0.000 in 0.00 W/m2
07:09 36.3 °F 28.5 °F 30.1 in SSW 2 mph   73% 0.000 in 0.00 W/m2
07:14 36.3 °F 28.5 °F 30.1 in Calm   2 mph 73% 0.000 in 0.00 W/m2
07:19 36.3 °F 28.5 °F 30.1 in Calm     73% 0.000 in 5.00 W/m2
07:24 36.3 °F 28.5 °F 30.1 in Calm     73% 0.000 in 7.00 W/m2
07:29 36.3 °F 28.5 °F 30.1 in Calm     73% 0.000 in 9.00 W/m2
07:34 36.4 °F 28.2 °F 30.1 in Calm     72% 0.000 in 11.00 W/m2
07:39 36.4 °F 28.2 °F 30.1 in Calm     72% 0.000 in 14.00 W/m2
07:44 36.4 °F 28.2 °F 30.1 in Calm     72% 0.000 in 16.00 W/m2
07:49 36.4 °F 28.2 °F 30.1 in Calm     72% 0.000 in 18.00 W/m2
07:54 36.4 °F 28.6 °F 30.1 in Calm     73% 0.000 in 19.00 W/m2
07:59 36.3 °F 28.5 °F 30.1 in Calm     73% 0.000 in 21.00 W/m2
08:04 36.3 °F 28.8 °F 30.1 in Calm     74% 0.000 in 21.00 W/m2
08:09 36.2 °F 28.7 °F 30.1 in Calm     74% 0.000 in 23.00 W/m2
08:14 36.2 °F 28.9 °F 30.1 in Calm     75% 0.000 in 25.00 W/m2
08:19 36.1 °F 29.3 °F 30.1 in Calm     76% 0.000 in 26.00 W/m2
08:24 36.1 °F 29.3 °F 30.1 in Calm     76% 0.000 in 26.00 W/m2
08:29 36.2 °F 29.3 °F 30.1 in Calm     76% 0.000 in 28.00 W/m2
08:34 36.4 °F 29.0 °F 30.1 in Calm     75% 0.000 in 28.00 W/m2
08:39 36.9 °F 29.1 °F 30.1 in Calm     74% 0.000 in 30.00 W/m2
08:44 37.4 °F 29.2 °F 30.1 in Calm     73% 0.000 in 32.00 W/m2
08:49 37.8 °F 29.4 °F 30.1 in Calm     72% 0.000 in 33.00 W/m2
08:54 38.1 °F 29.4 °F 30.1 in Calm     71% 0.000 in 120.00 W/m2
08:59 38.6 °F 29.6 °F 30.1 in Calm     70% 0.000 in 232.00 W/m2
09:04 39.0 °F 30.0 °F 30.1 in Calm     70% 0.000 in 232.00 W/m2
El Dorado Weather
Compliments of Weather Underground - 2 mb